Regional Weather Roundup
Issued by NWS

Home | Current Version | Previous Version | Graphics & Text | Print | Product List | Glossary On
Versions: 1 2 3 4 5 6 7 8 9 10 11 12 13 14 15 16 17 18 19 20 21 22 23 24 25 26 27 28 29 30 31 32 33 34 35 36 37 38 39 40 41 42 43 44 45 46 47 48 49 50
000
ASUS43 KDTX 300901
RWRMI
MICHIGAN HOURLY REGIONAL WEATHER ROUNDUP
NATIONAL WEATHER SERVICE DETROIT/PONTIAC MI
500 AM EDT THU OCT 30 2014

NOTE: "FAIR" INDICATES FEW OR NO CLOUDS BELOW 12,000 FEET WITH NO
SIGNIFICANT WEATHER AND/OR OBSTRUCTION TO VISIBILITY.

MIZ047>049-052>055-059>063-066>070-074>076-081>083-301000-
SOUTHEAST LOWER MICHIGAN

CITY           SKY/WX    TMP DP  RH WIND       PRES   REMARKS
ADRIAN         CLEAR     36  33  89 NW6       30.13R WCI  31
ALMA           CLOUDY    34  33  97 CALM      30.12R
ANN ARBOR      CLEAR     32  30  92 NW3       30.11R
BAD AXE        CLOUDY    39  34  82 W3        30.10S
CARO           CLOUDY    40  37  86 CALM      30.10S
DETROIT CITY   CLOUDY    45  33  63 NW5       30.11S
DETROIT        MOCLDY    39  33  79 NW5       30.12R
FLINT          MOCLDY    37  33  85 W3        30.12S
GROSSE ILE     CLEAR     39  36  87 NW6       30.10R WCI  35
HILLSDALE      CLOUDY    35  35 100 CALM      30.11S
HOWELL         MOCLDY    36  34  94 CALM      30.11S

CITY           SKY/WX    TMP DP  RH WIND       PRES   REMARKS
JACKSON        CLOUDY    33  32  96 CALM      30.11F
LAMBERTVILLE   CLEAR     37  34  87 NW3       30.13R
LANSING        CLOUDY    37  35  92 CALM      30.12F
LAPEER         CLOUDY    41  33  74 NW6       30.11R
MASON          CLOUDY    35  34  96 CALM      30.11F
MONROE         CLEAR     36  34  93 CALM      30.10R
MT. CLEMENS    CLOUDY    43  35  75 NW10      30.08R
PONTIAC        CLOUDY    40  34  79 NW6       30.09S
PORT HOPE        N/A     42  32  67 W6        30.07S
PORT HURON     CLEAR     39  34  81 W5        30.09S
TRI CITIES     MOCLDY    37  34  89 CALM      30.12S
TROY           CLOUDY    44  32  63 NW7       30.12R
SAGINAW HB     CLOUDY    41  36  81 CALM      30.11S
$$
MIZ043>046-050>051-056>058-064>065-071>073-077>080-301000-
SOUTHWEST LOWER MICHIGAN

CITY           SKY/WX    TMP DP  RH WIND       PRES   REMARKS
BATTLE CREEK   CLOUDY    43  37  79 S3        30.12F
BENTON HARBOR  CLOUDY    46  34  62 SW6       30.12S
BIG RAPIDS     CLOUDY    34  34 100 CALM      30.08F
COLDWATER      CLOUDY    43  40  91 CALM      30.12S
FREMONT        CLOUDY    40  38  91 CALM      30.09F
HOLLAND        CLOUDY    45  39  79 CALM      30.12S
GRAND RAPIDS   CLOUDY    39  37  92 CALM      30.11S
IONIA          CLOUDY    37  36  97 CALM      30.10F
KALAMAZOO      CLOUDY    44  37  76 S3        30.12S
LUDINGTON      PTCLDY    43  36  78 CALM      30.09S
MARSHALL       CLOUDY    37  37  97 CALM      30.11F
MOUNT PLEASANT CLOUDY    31  31  98 CALM      30.09F
MUSKEGON       CLOUDY    45  39  79 E3        30.10F
SOUTH HAVEN    CLOUDY    45  40  82 CALM      30.11S
$$
MIZ016>042-301000-
NORTHERN LOWER MICHIGAN

CITY           SKY/WX    TMP DP  RH WIND       PRES   REMARKS
ALPENA         PTCLDY    33  29  85 W5        30.08S WCI  29
BEAVER ISLAND  CLOUDY    38  36  94 CALM      30.06F
CADILLAC       CLOUDY    38  37  94 CALM      30.06F
CHARLEVOIX     CLOUDY    41  33  74 CALM      30.09F
FRANKFORT      MOCLDY    38  37  96 CALM      30.07S
GAYLORD        CLOUDY    37  33  85 CALM      30.05F
GRAYLING       CLEAR     31  31 100 CALM      30.07F
HARBOR SPRINGS CLOUDY    34  32  93 NE3       30.07S
HOUGHTON LAKE  PTCLDY    34  33  96 E3        30.08S
MANISTEE       PTCLDY    39  36  87 CALM      30.08S
OSCODA         PTCLDY    32  30  93 W3        30.09S
PELLSTON       CLOUDY    31  30  96 CALM      30.07F
ROGERS CITY    PTCLDY    34  32  93 W5        30.08S WCI  30
TRAVERSE CITY  CLOUDY    42  37  82 CALM      30.07F
$$
MIZ007>008-015-301000-
EASTERN UPPER MICHIGAN

CITY           SKY/WX    TMP DP  RH WIND       PRES   REMARKS
KINROSS        CLOUDY    34  34 100 W6        30.05S WCI  29
MACKINAC ISLAN MOCLDY    38  32  78 W7        30.05F WCI  33
NEWBERRY       CLOUDY    33  33  99 SW6       30.04F WCI  28
S. S. MARIE    CLOUDY    35  32  88 S5        30.04S WCI  31
$$
MIZ004>006-011>014-085-301000-
CENTRAL UPPER MICHIGAN

CITY           SKY/WX    TMP DP  RH WIND       PRES   REMARKS
MANISTIQUE     CLOUDY    36  35  96 CALM      30.06S
ESCANABA       CLOUDY    37  34  87 W3        30.06S
MENOMINEE      CLOUDY    39  34  81 CALM      30.07S
SAWYER-GWINN   CLOUDY    37  33  88 CALM      30.02F
$$
MIZ001>003-009>011-084-301000-
WESTERN UPPER MICHIGAN

CITY           SKY/WX    TMP DP  RH WIND       PRES   REMARKS
IRON MOUNTAIN  CLOUDY    40  32  73 CALM      30.04F
HOUGHTON       CLOUDY    38  35  89 W8        30.01S WCI  32
COPPER HARBOR    N/A     40  36  86 CALM      30.02F
IRONWOOD       CLOUDY    37  34  87 CALM      30.02S
$$

ABBREVIATIONS USED IN REMARKS
   TC - TEMPERATURE IN CELSIUS
  WCI - WIND CHILL INDEX
   HX - HEAT INDEX
  VSB - VISIBILITY




USA.gov is the U.S. government's official web portal to all federal, state and local government web resources and services.